Location: *
(18.5200°S, 46.4500°E)
Time: 14:42:44
(UTC+00:00)

Cosmos 2173 Rocket - Pass Details

Date: 19 July 2019
Orbit: 944 x 1001 km, 83.0° (Epoch: 22 August)

Event Time Altitude Azimuth Distance (km) Brightness Sun altitude
Rises 14:59:02 0° 181° (S) 3,739 6.9 -6.1°
Reaches altitude 10° 15:01:36 10° 178° (S) 2,781 6.2 -6.7°
Maximum altitude 15:07:58 70° 95° (E) 1,055 4.0 -8.1°
Drops below altitude 10° 15:14:12 10° 11° (NNE) 2,727 6.4 -9.5°
Sets 15:16:42 0° 9° (N) 3,661 7.1 -10.1°
